[[{"header":{"parameterUnit":"m.s-1","parameterCategory":1,"la1":30.2991,"la2":30.254,"lo1":-89.0895,"lo2":-89.0444,"dy":0.0017,"dx":0.0017,"nx":28,"ny":28,"refTime":"2025-06-04T09:00:00:Z","depth":0,"parameterNumber":2,"parameterNumberName":"U-component_of_WINDS"},"data":[0,0,0,0,0,0,0,0,0,0,0,0,0,0,0,0,0,0,0,0,0,0,0,0,0,0,0,0,0,0,0,0,0,0,0,0,0,0,0,0,0,0,0,0,0,0,0,0,0,0,0,0,0,0,0,0,0,0,-0.6326,-0.6324,0,-0.614,-0.6138,-0.6136,-0.6027,-0.6027,-0.6026,-0.6026,-0.5834,-0.5829,-0.5825,0,0,0,0,0,0,0,0,0,0,0,0,0,-0.6586,-0.6581,-0.6326,-0.6324,-0.6321,-0.6141,-0.6138,-0.6135,-0.6027,-0.6027,-0.6026,-0.6026,-0.5835,-0.583,-0.5824,0,0,0,0,0,0,0,0,0,0,0,0,0,-0.6444,-0.658,-0.6326,-0.6246,-0.6237,-0.6141,-0.6138,-0.6135,-0.6028,-0.6027,-0.6026,-0.6026,-0.5837,-0.583,-0.5823,-0.5793,0,0,-0.5802,-0.5799,0,0,0,0,0,0,0,0,-0.6452,-0.6434,-0.626,-0.6251,-0.6241,-0.6106,-0.6159,-0.602,-0.6028,-0.6107,-0.6026,-0.6025,-0.5925,-0.5911,-0.5877,-0.5784,-0.5776,-0.5801,-0.5797,-0.5794,-0.5792,0,0,0,0,0,0,0,-0.6462,-0.6442,-0.6252,-0.6258,-0.6246,-0.6218,-0.6197,-0.6132,-0.6022,-0.61,-0.6092,-0.6071,-0.5919,-0.5884,-0.5872,-0.5773,-0.5801,-0.5795,-0.5791,-0.5788,-0.5645,-0.5646,0,0,0,0,0,0,-0.6485,-0.6451,-0.6258,-0.6247,-0.6347,-0.6214,-0.6191,-0.615,-0.6022,-0.6002,-0.6072,-0.6067,-0.5897,-0.588,-0.5865,-0.582,-0.5794,-0.5787,-0.5783,-0.5645,-0.5645,-0.5646,0,0,0,0,0,0,-0.6491,-0.6469,-0.6266,-0.6346,-0.6318,-0.621,-0.6166,-0.6147,-0.6111,-0.6001,-0.5981,-0.6056,-0.5895,-0.5875,-0.5812,-0.5812,-0.5784,-0.5778,-0.5644,-0.5645,-0.5645,-0.5731,0,0,0,0,0,0,-0.6499,-0.6471,-0.6459,-0.6347,-0.6315,-0.6217,-0.6166,-0.6144,-0.61,-0.6091,-0.5981,-0.5962,-0.5893,-0.5823,-0.5805,-0.5802,-0.5772,-0.5644,-0.5644,-0.5645,-0.5728,-0.5735,-0.5741,0,0,0,0,0,-0.6508,-0.649,-0.6459,-0.6437,-0.6297,-0.6217,-0.6198,-0.612,-0.61,-0.6087,-0.6016,-0.5965,-0.5815,-0.5817,-0.5796,-0.5791,-0.5643,-0.5644,-0.5645,-0.5725,-0.5733,-0.5741,0,0,0,0,0,0,-0.6605,-0.6474,-0.6438,-0.6383,-0.6312,-0.6199,-0.6179,-0.6132,-0.6064,-0.6059,-0.5964,-0.594,-0.5887,-0.5832,-0.5837,-0.5754,-0.5724,-0.572,-0.5792,-0.5799,-0.5805,-0.5818,-0.5766,0,0,0,0,0,-0.662,-0.6566,-0.6455,-0.6417,-0.6384,-0.6288,-0.625,-0.6196,-0.6118,-0.6088,-0.6012,-0.5938,-0.5874,-0.5833,-0.5768,-0.572,-0.5694,-0.5706,-0.5713,-0.5718,-0.5716,-0.5686,-0.569,-0.5649,-0.5649,-0.5649,0,0,-0.665,-0.6572,-0.6544,-0.6435,-0.6373,-0.6319,-0.6263,-0.6209,-0.6167,-0.6079,-0.6015,-0.5957,-0.5868,-0.5813,-0.5784,-0.5766,-0.5722,-0.572,-0.5725,-0.5719,-0.5687,-0.5691,-0.5695,-0.565,-0.565,-0.5649,0,0,-0.6677,-0.6613,-0.6575,-0.6514,-0.6422,-0.6359,-0.635,-0.6244,-0.6202,-0.6137,-0.6069,-0.6019,-0.5911,-0.585,-0.5805,-0.581,-0.5761,-0.5792,-0.5824,-0.5796,-0.5799,-0.5802,-0.5803,-0.5804,-0.579,-0.5791,-0.5791,0,-0.6726,-0.6642,-0.6561,-0.651,-0.6464,-0.6382,-0.6342,-0.6288,-0.6179,-0.6149,-0.613,-0.5992,-0.5927,-0.5855,-0.5857,-0.5824,-0.581,-0.5803,-0.5806,-0.5807,-0.5808,-0.5808,-0.5809,-0.5795,-0.5794,-0.5794,-0.5793,0,-0.6706,-0.665,-0.6629,-0.6527,-0.6479,-0.6434,-0.6345,-0.6306,-0.6257,-0.6196,-0.613,-0.6048,-0.5965,-0.5945,-0.5896,-0.5866,-0.5858,-0.5824,-0.5791,-0.5818,-0.5816,-0.5815,-0.5801,-0.5799,-0.5798,-0.5797,0,0,-0.6787,-0.6642,-0.6635,-0.6588,-0.6481,-0.6435,-0.6386,-0.6306,-0.6274,-0.6202,-0.6158,-0.6069,-0.6037,-0.5986,-0.593,-0.5905,-0.5914,-0.5874,-0.587,-0.5883,-0.5875,-0.5901,-0.5902,-0.5881,-0.5881,-0.5881,-0.5882,0,-0.6798,-0.6707,-0.6632,-0.6569,-0.6515,-0.6437,-0.6395,-0.6324,-0.6266,-0.6211,-0.6147,-0.6085,-0.6048,-0.6016,-0.5989,-0.5919,-0.5911,-0.5918,-0.5838,-0.5837,-0.5862,-0.5901,-0.5927,-0.5933,-0.5881,-0.5881,-0.5881,0,-0.6798,-0.673,-0.6661,-0.6559,-0.6534,-0.6497,-0.6417,-0.6366,-0.6285,-0.6244,-0.6188,-0.613,-0.6074,-0.6048,-0.597,-0.5976,-0.594,-0.59,-0.5899,-0.5887,-0.586,-0.5889,-0.5933,-0.5934,-0.5879,-0.5879,-0.588,0,-0.6863,-0.6754,-0.6698,-0.666,-0.6541,-0.6516,-0.6465,-0.6383,-0.634,-0.627,-0.6241,-0.6166,-0.6124,-0.6067,-0.599,-0.5978,-0.5919,-0.5887,-0.5883,-0.5885,-0.5873,-0.5874,-0.591,-0.5852,-0.5852,-0.5852,-0.5852,0,-0.6881,-0.6842,-0.6726,-0.6692,-0.6645,-0.656,-0.6516,-0.6459,-0.6387,-0.6339,-0.6268,-0.6225,-0.6126,-0.6072,-0.6011,-0.5955,-0.5937,-0.5902,-0.5886,-0.5907,-0.5912,-0.5881,-0.5878,-0.5852,-0.5852,-0.5852,-0.5852,0,-0.6946,-0.6866,-0.68,-0.6693,-0.6665,-0.6636,-0.6543,-0.6507,-0.6445,-0.6386,-0.6368,-0.6271,-0.6202,-0.612,-0.6025,-0.5984,-0.5934,-0.591,-0.5961,-0.5952,-0.5952,-0.5953,-0.5968,-0.5965,-0.5912,-0.5912,-0.5913,0,-0.6962,-0.693,-0.682,-0.6783,-0.6734,-0.6677,-0.6632,-0.6547,-0.6504,-0.6409,-0.6384,-0.6311,-0.6247,-0.6142,-0.6062,-0.5989,-0.5963,-0.5973,-0.5951,-0.5974,-0.5961,-0.5964,-0.596,-0.5979,-0.598,-0.5981,-0.5981,0,-0.7,-0.6962,-0.6901,-0.6826,-0.6775,-0.6712,-0.6645,-0.6619,-0.6521,-0.6476,-0.6405,-0.6357,-0.626,-0.6188,-0.6105,-0.6051,-0.6,-0.5989,-0.5984,-0.6005,-0.6035,-0.6018,-0.5976,-0.5989,-0.5988,-0.5987,-0.5987,-0.5987,-0.7039,-0.7007,-0.6924,-0.6858,-0.68,-0.674,-0.67,-0.6634,-0.6574,-0.6489,-0.6443,-0.6374,-0.6293,-0.6176,-0.6125,-0.6069,-0.6051,-0.6044,-0.6042,-0.6041,-0.6047,-0.6046,-0.6054,-0.6054,-0.6053,-0.6053,-0.6053,0,-0.7073,-0.7016,-0.6956,-0.6866,-0.6814,-0.6771,-0.6695,-0.6655,-0.6595,-0.6524,-0.6464,-0.6383,-0.6312,-0.6228,-0.6152,-0.6124,-0.6098,-0.6107,-0.6107,-0.6095,-0.6068,-0.608,-0.6128,-0.6128,-0.6128,-0.6128,-0.6128,-0.6128,-0.7084,-0.7027,-0.698,-0.6893,-0.6836,-0.6768,-0.6728,-0.6672,-0.6615,-0.6529,-0.647,-0.6416,-0.6339,-0.6257,-0.6191,-0.6168,-0.6142,-0.6158,-0.6128,-0.6104,-0.6097,-0.6091,-0.6101,-0.6153,-0.6153,-0.6159,-0.6159,-0.6159]},{"header":{"parameterUnit":"m.s-1","parameterCategory":1,"la1":30.2991,"la2":30.254,"lo1":-89.0895,"lo2":-89.0444,"dy":0.0017,"dx":0.0017,"nx":28,"ny":28,"refTime":"2025-06-04T09:00:00:Z","depth":0,"parameterNumber":3,"parameterNumberName":"V-component_of_WINDS"},"data":[0,0,0,0,0,0,0,0,0,0,0,0,0,0,0,0,0,0,0,0,0,0,0,0,0,0,0,0,0,0,0,0,0,0,0,0,0,0,0,0,0,0,0,0,0,0,0,0,0,0,0,0,0,0,0,0,0,0,4.312,4.312,0,4.3148,4.3149,4.3149,4.3158,4.3158,4.3158,4.3158,4.3185,4.3186,4.3186,0,0,0,0,0,0,0,0,0,0,0,0,0,4.3072,4.3073,4.312,4.312,4.312,4.3148,4.3149,4.3149,4.3158,4.3158,4.3158,4.3158,4.3184,4.3185,4.3186,0,0,0,0,0,0,0,0,0,0,0,0,0,4.3096,4.3073,4.312,4.3128,4.3129,4.3148,4.3149,4.3149,4.3158,4.3158,4.3158,4.3158,4.3184,4.3185,4.3187,4.3198,0,0,4.319,4.3191,0,0,0,0,0,0,0,0,4.3094,4.3098,4.3127,4.3128,4.3129,4.315,4.3142,4.3165,4.3158,4.3147,4.3158,4.3158,4.3173,4.3175,4.3181,4.3199,4.32,4.319,4.3191,4.3192,4.3192,0,0,0,0,0,0,0,4.3093,4.3096,4.3131,4.3127,4.3128,4.3131,4.3134,4.3146,4.3161,4.3148,4.3149,4.3152,4.3174,4.318,4.3182,4.3201,4.319,4.3192,4.3192,4.3193,4.3232,4.3233,0,0,0,0,0,0,4.309,4.3095,4.313,4.3132,4.3111,4.3132,4.3135,4.3143,4.3161,4.3163,4.3152,4.3153,4.3178,4.318,4.3183,4.3199,4.3192,4.3193,4.3194,4.3232,4.3232,4.3233,0,0,0,0,0,0,4.3089,4.3093,4.3129,4.3114,4.3118,4.3133,4.3141,4.3144,4.315,4.3164,4.3166,4.3156,4.3178,4.3181,4.3195,4.32,4.3194,4.3195,4.3232,4.3232,4.3233,4.323,0,0,0,0,0,0,4.3087,4.3092,4.3097,4.3114,4.3119,4.3141,4.3142,4.3144,4.3152,4.3153,4.3168,4.317,4.3178,4.3193,4.3196,4.3201,4.3196,4.3231,4.3232,4.3232,4.3229,4.323,4.323,0,0,0,0,0,4.3086,4.3094,4.3097,4.3101,4.3125,4.3141,4.3144,4.3153,4.3153,4.3157,4.3167,4.317,4.3199,4.3194,4.3198,4.3203,4.3231,4.3232,4.3232,4.3229,4.323,4.323,0,0,0,0,0,0,4.3076,4.3096,4.31,4.3114,4.3126,4.3142,4.3148,4.3153,4.3165,4.3165,4.3175,4.3178,4.3192,4.3199,4.3194,4.3217,4.3215,4.3216,4.3211,4.3212,4.3213,4.3211,4.3197,0,0,0,0,0,4.3075,4.3087,4.3104,4.3115,4.3121,4.3134,4.3141,4.3147,4.3159,4.3164,4.3175,4.3186,4.3198,4.3205,4.3217,4.3231,4.3235,4.3236,4.3237,4.3237,4.3238,4.3248,4.3249,4.3235,4.3235,4.3235,0,0,4.3074,4.3087,4.3093,4.3113,4.3123,4.3135,4.3138,4.3149,4.3159,4.3166,4.318,4.3188,4.3202,4.3217,4.3223,4.3223,4.3244,4.3238,4.3238,4.3239,4.3249,4.325,4.3252,4.3235,4.3235,4.3235,0,0,4.3078,4.3089,4.31,4.311,4.3126,4.3135,4.3138,4.3155,4.3161,4.3176,4.3182,4.3193,4.3213,4.3223,4.3231,4.3242,4.3245,4.3245,4.3248,4.3257,4.3258,4.3259,4.3264,4.3266,4.3246,4.3246,4.3246,0,4.3074,4.3093,4.3104,4.3117,4.3126,4.3135,4.3147,4.3156,4.3174,4.318,4.318,4.3207,4.3216,4.3234,4.3237,4.3243,4.3247,4.3243,4.3257,4.3258,4.326,4.3265,4.3266,4.3246,4.3246,4.3246,4.3246,0,4.3088,4.3102,4.3108,4.3128,4.3138,4.315,4.3163,4.3172,4.3178,4.3187,4.3203,4.3215,4.3231,4.3235,4.324,4.3255,4.3254,4.3255,4.3254,4.3261,4.3266,4.3267,4.3246,4.3246,4.3246,4.3246,0,0,4.3085,4.3113,4.3115,4.3125,4.3145,4.3155,4.3168,4.3184,4.3192,4.3205,4.3216,4.3234,4.3237,4.3245,4.3252,4.326,4.327,4.3261,4.3261,4.3263,4.3288,4.3287,4.3289,4.3273,4.3273,4.3273,4.3287,0,4.3092,4.3117,4.3128,4.3147,4.3161,4.3171,4.3182,4.3195,4.3205,4.3217,4.3228,4.3241,4.3242,4.3248,4.3256,4.3267,4.3275,4.3266,4.3284,4.3284,4.328,4.3291,4.329,4.3302,4.3289,4.3289,4.3289,0,4.3103,4.3118,4.3139,4.316,4.3166,4.3176,4.3193,4.3205,4.322,4.3227,4.3238,4.3245,4.326,4.3258,4.3279,4.3272,4.328,4.3287,4.3288,4.329,4.3287,4.3294,4.3306,4.3308,4.3292,4.3292,4.3292,0,4.31,4.3125,4.3142,4.315,4.3174,4.3181,4.3191,4.3207,4.3217,4.3232,4.3238,4.3254,4.3263,4.3275,4.3286,4.3284,4.3306,4.3305,4.3312,4.3312,4.3316,4.3316,4.333,4.3321,4.3321,4.3321,4.3321,0,4.3107,4.3119,4.3141,4.3151,4.3166,4.318,4.3194,4.3205,4.322,4.3232,4.3242,4.3253,4.3267,4.3281,4.329,4.3306,4.331,4.3316,4.3318,4.3315,4.3315,4.3321,4.332,4.3321,4.3321,4.3321,4.3321,0,4.3105,4.312,4.3139,4.3161,4.3167,4.3177,4.3196,4.3207,4.3218,4.3234,4.3238,4.3255,4.3272,4.3285,4.3306,4.3312,4.333,4.3332,4.3325,4.3326,4.3333,4.3332,4.3352,4.3356,4.3343,4.3343,4.3343,0,4.3108,4.3119,4.3143,4.3153,4.3164,4.3179,4.319,4.3205,4.3215,4.3236,4.3244,4.3262,4.3277,4.3303,4.3317,4.3333,4.3336,4.3342,4.3339,4.3336,4.3338,4.3337,4.3339,4.3342,4.3342,4.3342,4.3343,0,4.3113,4.3121,4.3137,4.3156,4.3169,4.3185,4.32,4.3208,4.3225,4.3237,4.3255,4.3267,4.329,4.3308,4.3326,4.3337,4.3343,4.3344,4.3347,4.3344,4.334,4.3343,4.3326,4.3343,4.3343,4.3343,4.3343,4.3343,4.3114,4.3125,4.3145,4.3163,4.3177,4.3192,4.3204,4.3217,4.3233,4.3254,4.3261,4.328,4.3298,4.3324,4.3335,4.335,4.335,4.3353,4.3354,4.3355,4.3356,4.3337,4.3353,4.3353,4.3353,4.3353,4.3353,0,4.312,4.3134,4.3151,4.3174,4.3189,4.3195,4.3213,4.3225,4.3242,4.3258,4.3274,4.3295,4.3313,4.333,4.3349,4.3358,4.3361,4.3362,4.3362,4.3364,4.3354,4.335,4.3359,4.3359,4.3359,4.3359,4.3359,4.3359,4.3125,4.3144,4.3155,4.3181,4.3195,4.3215,4.3225,4.3239,4.3253,4.3277,4.3293,4.3304,4.3321,4.3342,4.3359,4.3363,4.337,4.3371,4.3376,4.3365,4.3365,4.3364,4.336,4.3372,4.3372,4.3385,4.3385,4.3385]}]]